Regional Weather Roundup
Issued by NWS Sioux Falls, SD

Home | Current Version | Previous Version | Text Only | Print | Product List | Glossary On
Versions: 1 2 3 4 5 6 7 8 9 10 11 12 13 14 15 16 17 18 19 20 21 22 23 24 25 26 27 28 29 30 31 32 33 34 35 36 37 38 39 40 41 42 43 44 45 46 47 48 49 50
000
ASUS43 KFSD 210202
RWRFSD

WEATHER ROUNDUP FOR SE SOUTH DAKOTA/SW MINNESOTA/NW IOWA
NATIONAL WEATHER SERVICE SIOUX FALLS SD
800 PM CST SAT DEC 20 2014

NOTE: "FAIR" INDICATES FEW OR NO CLOUDS BELOW 12,000 FEET WITH NO
SIGNIFICANT WEATHER AND OR OBSTRUCTIONS TO VISIBILITY.


SDZ038>040-050-052>070-210300-
SOUTHEAST SOUTH DAKOTA

CITY           SKY/WX    TMP DP  RH WIND       PRES   REMARKS
CHAMBERLAIN    NOT AVBL
HURON          CLOUDY    30  29  96 S12       29.94F FOG     WCI  20
MADISON        FOG       28  28 100 S16       29.96S VSB 1/4 WCI  17
MITCHELL       CLOUDY    32  31  96 S12       29.97F FOG     WCI  23
SIOUX FALLS    CLOUDY    30  29  96 S15       29.99F FOG     WCI  19
WINNER         FAIR      33  26  75 SW6       29.90S WCI  28
YANKTON        CLOUDY    30  28  93 SE14      30.01R WCI  20
$$

MNZ071-072-080-081-089-090-097-098-210300-
SOUTHWEST MINNESOTA

CITY           SKY/WX    TMP DP  RH WIND       PRES   REMARKS
FAIRMONT       CLOUDY    30  27  86 S13       30.06F WCI  20
JACKSON        CLOUDY    32  30  93 S12G17    30.04F WCI  23
LUVERNE        CLOUDY    32  30  93 S10       30.01F FOG     WCI  24
MARSHALL       CLOUDY    30  27  86 S18       30.01F WCI  18
MONTEVIDEO     CLOUDY    30  30 100 S10G18    30.02F WCI  21
PIPESTONE      CLOUDY    28  28 100 S6        29.97F FOG     WCI  22
REDWOOD FALLS  CLOUDY    32  28  85 S13       30.05S WCI  22
TRACY          CLOUDY    31  30  94 S15       30.01F FOG     WCI  20
WINDOM         CLOUDY    30  30 100 S10G18    30.03F WCI  21
WORTHINGTON    CLOUDY    30  28  93 S14       30.03S WCI  20
$$

IAZ001>003-012>014-020>022-031-032-NEZ013-014-SDZ071-210300-
NORTHWEST IOWA

CITY           SKY/WX    TMP DP  RH WIND       PRES   REMARKS
DENISON        CLOUDY    32  32 100 S14       30.05F FOG     WCI  22
ESTHERVILLE    CLOUDY    31  29  92 S14       30.05F WCI  21
SIOUX CITY     CLOUDY    33  31  92 S15       30.04F FOG     WCI  23
SPENCER        CLOUDY    32  29  88 S13       30.05F WCI  22
$$

ABBREVIATIONS USED IN REMARKS
   TC - TEMPERATURE IN CELSIUS
  WCI - WIND CHILL INDEX
   HX - HEAT INDEX
  VSB - VISIBILITY




USA.gov is the U.S. government's official web portal to all federal, state and local government web resources and services.